User: anonymous   Login
Location: Unspecified
(0.0000°N, 0.0000°E)
Time: 04:14:56
(UTC+00:00)
Language:

FLOCK 4Q 2 - Orbit

View from above orbital plane
View from above orbital plane
View from above satellite
View from above satellite

Ground track
Ground track

The orbit is defined by the following mean orbital elements,

1 58320U          26145.58856755 +.00000000 +00000-0 +42056-3 0 00008
2 58320  97.3830 233.5106 0005996 203.1486 156.9496 15.48479093    03
Epoch (UTC): 25 May 2026 14:07:32
Eccentricity: 0.0005996
inclination: 97.3830°
perigee height: 417 km
apogee height: 425 km
right ascension of ascending node: 233.5106°
argument of perigee: 203.1486°
revolutions per day: 15.48479093
mean anomaly at epoch: 156.9496°

The dashed part of the orbit path shows where the satellite is in the earth's shadow,  

DLR